CZ-6A DEB, 64651

Orbit data source: Space-Track

CZ-6A DEB, 64651 is space debris in LEO originally from a launch on Tue, 06 Aug 2024 UTC launched from the Taiyaun Space Center, China (TSC). Debris objects in space refer to the collection of defunct objects orbiting the Earth. Examples of debris include non-operational satellites, rocket bodies, and fragments generated from explosions, collisions, or faulty payload assembly.

Loading next visibility...
Identifier
64651, 2024-140AER
Orbit
LEO
Country
Flag of CNCN / PRC
Related business
Manufacturer
SAST
Mission
Spacecraft
Bus & Motor
Unknown
Mass
Unknown
Launch date (UTC)
2024-08-06 (2 years ago)
Launch vehicle
Unknown
Launch site
Taiyaun Space Center, China (TSC)
Object type
Payload
Rocket body
Debris
Shape & HBR
Unknown shape, 1.1 m
Radar Cross Section
Medium (>0.1 m² and <1 m²)

Expand to show TLE details & history
Last TLE update: 20 hours ago

TLE from 20 hours ago
0 CZ-6A DEB
1 64651U 24140AER 26171.12664554  .00001081  00000-0  53530-3 0  9992
2 64651  88.3455 223.3840 0079049 191.7612 168.1732 14.14937447 87440
Epoch: 2026-06-20T03:02Z
TLE epoch observation values (Epoch: 2026-06-20T03:02:22.174Z)
Latitude
-0.00001°
Longitude
-90.55413°
Altitude
901.465 km
Speed
7.373 km/s
True Right ascension
14h 53m 32s
True Declination
0° 00' 00"
Sunlit
Object was in full shadow at epoch
Visualization orbit readout
Latitude
Unknown
Longitude
Unknown
Altitude
Unknown
Speed
Unknown
Apparent Right ascension
Unknown
Apparent Declination
Unknown
Sunlit
N/A
Visualization observer readout
Local Sidereal Time
10:19:03
Azimuth
Unknown
Elevation
Unknown
Doppler factor
Unknown
Orbital elements
Apogee altitude
896.543 km
Perigee altitude
782.433 km
Semi-major axis
7,217.625 km
Eccentricity
0.0079
Inclination
88.3455°
RAAN
223.384°
Arg. of periapsis
191.7612°
True anomaly
168.35708°
Mean anomaly
168.1732°
Eccentric anomaly
168.26531°
Mean motion
3.53958 °/min
Orbital period
101.71 mins
BSTAR
0.0005353
Loading maneuver chart data...
Computing Atmospheric mass density...
Loading historical data...
Loading historical data...
Loading historical data...
Loading historical data...
Loading historical data...
Loading historical data...
Loading historical data...

Documentation

Showing up to 5 results
|